When you browse on this site, cookies collect data to enhance your experience and personalize the content and advertising you see.
Visit our Privacy Policy to learn more. By continuing to use the site, you agree to this use of cookies and data.

Stündliche Wetter Bolshie Motykaly

Heute, 21 September, Montag

Zeit Temperatur Niederschläge Wind Luftdruck Luftfeuchtigkeit
00:00 +13°C° 0 mm 2 m/S 754 mmHg 86%
01:00 +13°C° 0 mm 2 m/S 754 mmHg 88%
02:00 +12°C° 0 mm 2 m/S 754 mmHg 89%
03:00 +12°C° 0 mm 2 m/S 754 mmHg 90%
04:00 +10°C° 0 mm 2 m/S 754 mmHg 90%
05:00 +10°C° 0 mm 2 m/S 754 mmHg 91%
06:00 +12°C° 0 mm 2 m/S 754 mmHg 88%
07:00 +12°C° 0 mm 2 m/S 754 mmHg 84%
08:00 +13°C° 0 mm 2 m/S 754 mmHg 80%
09:00 +15°C° 0 mm 2 m/S 754 mmHg 71%
10:00 +18°C° 0 mm 2 m/S 754 mmHg 61%
11:00 +20°C° 0 mm 2 m/S 754 mmHg 51%
12:00 +21°C° 0 mm 2 m/S 754 mmHg 47%
13:00 +23°C° 0 mm 2 m/S 753 mmHg 44%
14:00 +24°C° 0 mm 2 m/S 753 mmHg 40%
15:00 +24°C° 0 mm 2 m/S 753 mmHg 43%
16:00 +23°C° 0 mm 2 m/S 753 mmHg 47%
17:00 +23°C° 0 mm 2 m/S 752 mmHg 50%
18:00 +20°C° 0 mm 2 m/S 752 mmHg 55%
19:00 +18°C° 0 mm 2 m/S 752 mmHg 60%
20:00 +16°C° 0 mm 2 m/S 752 mmHg 65%
21:00 +16°C° 0 mm 2 m/S 752 mmHg 68%
22:00 +15°C° 0 mm 2 m/S 752 mmHg 70%
23:00 +15°C° 0 mm 2 m/S 752 mmHg 72%

Morgen, 22 September, Dienstag

Zeit Temperatur Niederschläge Wind Luftdruck Luftfeuchtigkeit
00:00 +14°C° 0 mm 2 m/S 752 mmHg 73%
01:00 +14°C° 0 mm 2 m/S 752 mmHg 74%
02:00 +14°C° 0 mm 2 m/S 752 mmHg 75%
03:00 +14°C° 0 mm 2 m/S 751 mmHg 76%
04:00 +13°C° 0 mm 2 m/S 751 mmHg 78%
05:00 +13°C° 0 mm 2 m/S 751 mmHg 79%
06:00 +14°C° 0 mm 2 m/S 751 mmHg 76%
07:00 +15°C° 0 mm 2 m/S 751 mmHg 74%
08:00 +15°C° 0 mm 2 m/S 751 mmHg 71%
09:00 +18°C° 0 mm 2 m/S 751 mmHg 64%
10:00 +20°C° 0 mm 2 m/S 751 mmHg 57%
11:00 +22°C° 0 mm 3 m/S 751 mmHg 50%
12:00 +24°C° 0 mm 3 m/S 751 mmHg 47%
13:00 +25°C° 0 mm 3 m/S 751 mmHg 44%
14:00 +26°C° 0 mm 3 m/S 750 mmHg 41%
15:00 +26°C° 0 mm 3 m/S 750 mmHg 44%
16:00 +25°C° 0 mm 2 m/S 750 mmHg 47%
17:00 +25°C° 0 mm 2 m/S 749 mmHg 50%
18:00 +23°C° 0 mm 2 m/S 749 mmHg 55%
19:00 +20°C° 0 mm 2 m/S 749 mmHg 60%
20:00 +18°C° 0 mm 2 m/S 749 mmHg 64%
21:00 +18°C° 0 mm 2 m/S 748 mmHg 66%
22:00 +17°C° 0 mm 3 m/S 748 mmHg 68%
23:00 +16°C° 0 mm 3 m/S 748 mmHg 69%

übermorgen, 23 September, Mittwoch

Zeit Temperatur Niederschläge Wind Luftdruck Luftfeuchtigkeit
00:00 +16°C° 0 mm 3 m/S 748 mmHg 72%
01:00 +16°C° 0 mm 3 m/S 748 mmHg 75%
02:00 +14°C° 0 mm 3 m/S 747 mmHg 77%
03:00 +14°C° 0 mm 3 m/S 747 mmHg 77%
04:00 +14°C° 0 mm 2 m/S 747 mmHg 77%
05:00 +14°C° 0 mm 2 m/S 747 mmHg 77%
06:00 +14°C° 0 mm 3 m/S 746 mmHg 73%
07:00 +14°C° 0 mm 3 m/S 746 mmHg 70%
08:00 +16°C° 0 mm 3 m/S 746 mmHg 66%
09:00 +18°C° 0 mm 3 m/S 746 mmHg 61%
10:00 +20°C° 0 mm 3 m/S 746 mmHg 56%
11:00 +21°C° 0 mm 4 m/S 746 mmHg 50%
12:00 +24°C° 0 mm 3 m/S 746 mmHg 48%
13:00 +25°C° 0 mm 3 m/S 745 mmHg 45%
14:00 +26°C° 0 mm 3 m/S 745 mmHg 42%
15:00 +26°C° 0 mm 3 m/S 745 mmHg 45%
16:00 +26°C° 0 mm 2 m/S 745 mmHg 48%
17:00 +25°C° 0 mm 2 m/S 744 mmHg 51%
18:00 +24°C° 0 mm 2 m/S 744 mmHg 56%
19:00 +21°C° 0 mm 3 m/S 744 mmHg 61%
20:00 +19°C° 0 mm 3 m/S 745 mmHg 67%
21:00 +18°C° 0 mm 3 m/S 745 mmHg 68%
22:00 +18°C° 0 mm 3 m/S 744 mmHg 69%
23:00 +17°C° 0 mm 3 m/S 744 mmHg 70%

24 September, Donnerstag

Zeit Temperatur Niederschläge Wind Luftdruck Luftfeuchtigkeit
00:00 +17°C° 0 mm 3 m/S 744 mmHg 70%
01:00 +16°C° 0 mm 2 m/S 744 mmHg 70%
02:00 +16°C° 0 mm 2 m/S 744 mmHg 70%
03:00 +16°C° 0 mm 2 m/S 744 mmHg 71%
04:00 +15°C° 0 mm 2 m/S 744 mmHg 71%
05:00 +15°C° 0 mm 2 m/S 744 mmHg 71%
06:00 +16°C° 0 mm 2 m/S 744 mmHg 70%
07:00 +16°C° 0 mm 3 m/S 744 mmHg 68%
08:00 +17°C° 0 mm 3 m/S 745 mmHg 67%
09:00 +19°C° 0 mm 3 m/S 745 mmHg 61%
10:00 +21°C° 0 mm 3 m/S 745 mmHg 56%
11:00 +24°C° 0 mm 3 m/S 745 mmHg 50%
12:00 +25°C° 0 mm 3 m/S 745 mmHg 48%
13:00 +26°C° 0 mm 3 m/S 745 mmHg 45%
14:00 +27°C° 0 mm 3 m/S 745 mmHg 42%
15:00 +26°C° 0 mm 3 m/S 745 mmHg 46%
16:00 +26°C° 0 mm 2 m/S 745 mmHg 49%
17:00 +25°C° 0 mm 2 m/S 745 mmHg 53%
18:00 +24°C° 0 mm 2 m/S 745 mmHg 57%
19:00 +21°C° 0 mm 2 m/S 745 mmHg 62%
20:00 +19°C° 0 mm 2 m/S 745 mmHg 67%
21:00 +19°C° 0.1 mm 2 m/S 745 mmHg 69%
22:00 +18°C° 0.1 mm 2 m/S 745 mmHg 71%
23:00 +18°C° 0.1 mm 2 m/S 746 mmHg 73%

25 September, Freitag

Zeit Temperatur Niederschläge Wind Luftdruck Luftfeuchtigkeit
00:00 +18°C° 0.1 mm 2 m/S 745 mmHg 75%
01:00 +17°C° 0.1 mm 2 m/S 745 mmHg 78%
02:00 +17°C° 0.1 mm 2 m/S 745 mmHg 81%
03:00 +17°C° 0 mm 2 m/S 745 mmHg 82%
04:00 +17°C° 0 mm 2 m/S 745 mmHg 83%
05:00 +16°C° 0 mm 2 m/S 745 mmHg 84%
06:00 +17°C° 0 mm 3 m/S 745 mmHg 82%
07:00 +18°C° 0 mm 3 m/S 745 mmHg 80%
08:00 +18°C° 0 mm 4 m/S 745 mmHg 78%
09:00 +20°C° 0 mm 5 m/S 744 mmHg 70%
10:00 +22°C° 0 mm 6 m/S 744 mmHg 62%
11:00 +24°C° 0 mm 7 m/S 744 mmHg 54%
12:00 +26°C° 0 mm 7 m/S 743 mmHg 51%
13:00 +27°C° 0 mm 7 m/S 743 mmHg 49%
14:00 +27°C° 0 mm 8 m/S 743 mmHg 46%
15:00 +27°C° 0 mm 7 m/S 742 mmHg 49%
16:00 +26°C° 0 mm 6 m/S 742 mmHg 51%
17:00 +25°C° 0 mm 5 m/S 741 mmHg 54%
18:00 +25°C° 0 mm 5 m/S 741 mmHg 56%
19:00 +23°C° 0 mm 5 m/S 741 mmHg 57%
20:00 +22°C° 0 mm 5 m/S 741 mmHg 59%
21:00 +22°C° 0.1 mm 5 m/S 741 mmHg 61%
22:00 +21°C° 0.1 mm 5 m/S 740 mmHg 62%
23:00 +21°C° 0.1 mm 4 m/S 740 mmHg 63%

26 September, Samstag

Zeit Temperatur Niederschläge Wind Luftdruck Luftfeuchtigkeit
00:00 +21°C° 0 mm 4 m/S 740 mmHg 64%
01:00 +20°C° 0 mm 4 m/S 739 mmHg 65%
02:00 +20°C° 0 mm 4 m/S 739 mmHg 66%
03:00 +20°C° 0 mm 4 m/S 738 mmHg 64%
04:00 +21°C° 0 mm 5 m/S 738 mmHg 62%
05:00 +21°C° 0 mm 6 m/S 738 mmHg 60%
06:00 +21°C° 0 mm 6 m/S 738 mmHg 60%
07:00 +21°C° 0 mm 5 m/S 739 mmHg 60%
08:00 +21°C° 0 mm 5 m/S 739 mmHg 60%
09:00 +21°C° 0.1 mm 4 m/S 740 mmHg 64%
10:00 +20°C° 0.1 mm 4 m/S 740 mmHg 69%
11:00 +20°C° 0.1 mm 3 m/S 741 mmHg 73%
12:00 +20°C° 0.4 mm 3 m/S 741 mmHg 77%
13:00 +19°C° 0.4 mm 2 m/S 741 mmHg 81%
14:00 +18°C° 0.4 mm 2 m/S 742 mmHg 84%
15:00 +19°C° 0.3 mm 2 m/S 742 mmHg 84%
16:00 +19°C° 0.3 mm 2 m/S 742 mmHg 83%
17:00 +19°C° 0.3 mm 2 m/S 742 mmHg 82%
18:00 +19°C° 0.1 mm 2 m/S 741 mmHg 86%
19:00 +18°C° 0.1 mm 3 m/S 741 mmHg 89%
20:00 +17°C° 0.1 mm 3 m/S 741 mmHg 93%
21:00 +18°C° 0.3 mm 3 m/S 740 mmHg 91%
22:00 +18°C° 0.3 mm 4 m/S 740 mmHg 89%
23:00 +18°C° 0.3 mm 4 m/S 739 mmHg 88%
Mehr zeigen